User: anonymous   Login
Location: Strawberry
(45.6646°N, 111.9596°W)
Time: 01:29:06
(UTC+00:00)
Language:

NOAA 19 - Orbit

View from above orbital plane
View from above orbital plane
View from above satellite
View from above satellite

Ground track
Ground track

The orbit data is extracted from the following two-line orbital elements,

1 33591U 09005A   22343.51182431  .00000169  00000-0  11615-3 0  9997
2 33591  99.1278  21.1606 0014639  58.7802 301.4801 14.12648398713169
Epoch (UTC): 09 December 2022 12:17:01
Eccentricity: 0.0014639
inclination: 99.1278°
perigee height: 840 km
apogee height: 861 km
right ascension of ascending node: 21.1606°
argument of perigee: 58.7802°
revolutions per day: 14.12648398
mean anomaly at epoch: 301.4801°
orbit number at epoch: 71316

The dashed part of the orbit path shows where the satellite is in the earth's shadow,  

DLR